sat.trackr.live / text

‹ back to catalog

2025-284A

NORAD 66913 · 2025-284A

PAYLOAD ACTIVE UNKNOWN

§ Identity

Operator
Country
PRC
Launch date
2025-12-05
Launch site
JSC
Launch vehicle
Mass (kg)
RCS (m²)

External: N2YO · Heavens-Above · Gunter

§ Orbital elements

Epoch: 2026-09-20T06:33:59.017536Z

Period
103.05 min
Inclination
80.4075°
Eccentricity
0.0005068
Mean motion
13.97368035 rev/d
Perigee alt
899.2 km
Apogee alt
906.6 km
Semi-major
7,281.1 km
B*
7.8846e-5
RAAN
190.1251°
Arg perigee
242.0796°
Mean anomaly
117.9852°
Rev number
4,076

§ Raw data

2025-284A1 66913U 25284A   26263.27359974  .00000120  00000+0  78846-4 0  99902 66913  80.4075 190.1251 0005068 242.0796 117.9852 13.97368035 40764

JSON: /api/v1/satellites/66913 · /tle

For live sub-satellite position, see the globe view (requires WebGL).

§ Visibility from observer

Set your observer location to see the next 7 days of passes ≥ 10°. The values pass through the URL so the page stays shareable.

No JS? Fill the form by hand. The geolocation button needs JavaScript.